Location: Stendal
(52.5994°N, 11.8400°E)
Time: 15:59:49
(UTC+02:00)

PCSat - Visible Passes

Search period start: 23 October 2021 00:00
Search period end: 01 November 2021 23:00
Orbit: 785 x 793 km, 67.1° (Epoch: 23 October)

Date Brightness Start Highest point End Pass type
(mag) Time Alt. Az. Time Alt. Az. Time Alt. Az.
23 Oct 11.6 03:32:52 24° NE 03:32:52 24° NE 03:36:35 10° E visible
23 Oct 9.7 05:13:37 29° NNW 05:16:26 71° NE 05:21:51 10° SE visible
23 Oct 10.6 06:54:57 10° WNW 06:59:24 26° WSW 07:03:48 10° SSW visible
24 Oct 12.1 03:03:28 16° ENE 03:03:28 16° ENE 03:05:03 10° ENE visible
24 Oct 10.1 04:44:14 48° N 04:45:19 57° NE 04:50:39 10° SE visible
24 Oct 10.2 06:25:01 17° WNW 06:28:30 34° WSW 06:33:18 10° S visible
24 Oct 11.9 21:10:01 10° SSW 21:10:20 12° SSW 21:10:20 12° SSW visible
25 Oct 10.6 04:15:03 43° ENE 04:15:03 43° ENE 04:19:23 10° ESE visible
25 Oct 9.9 05:55:49 33° WNW 05:57:34 44° WSW 06:02:39 10° S visible
25 Oct 11.0 20:39:09 10° SSW 20:41:26 25° S 20:41:26 25° S visible
26 Oct 11.7 03:46:00 21° E 03:46:00 21° E 03:48:02 10° ESE visible
26 Oct 9.6 05:26:48 56° SW 05:26:48 56° SW 05:31:52 10° SSE visible
26 Oct 11.4 07:07:41 10° W 07:08:49 11° W 07:09:58 10° WSW visible
26 Oct 10.2 20:08:25 10° S 20:12:22 36° SE 20:12:22 36° SE visible
26 Oct 11.6 21:51:26 10° WSW 21:53:08 20° WSW 21:53:08 20° WSW visible
27 Oct 10.6 04:57:56 34° SSE 04:57:56 34° SSE 05:00:58 10° SSE visible
27 Oct 11.2 06:38:44 14° WSW 06:38:44 14° WSW 06:40:56 10° SW visible
27 Oct 10.3 19:37:48 10° S 19:42:29 30° ESE 19:43:07 30° E visible
27 Oct 10.5 21:20:12 10° SW 21:23:53 42° WSW 21:23:53 42° WSW visible
28 Oct 11.8 04:29:10 14° SE 04:29:10 14° SE 04:29:57 10° SE visible
28 Oct 11.4 06:09:58 14° SW 06:09:58 14° SW 06:10:59 10° SSW visible
28 Oct 10.7 19:07:23 10° SSE 19:11:36 23° ESE 19:13:42 19° ENE visible
28 Oct 9.6 20:49:02 10° SW 20:54:26 78° NW 20:54:26 78° NW visible
28 Oct 12.2 22:34:08 10° W 22:35:12 15° WNW 22:35:12 15° WNW visible
29 Oct 11.0 18:37:12 10° SSE 18:40:45 18° ESE 18:44:07 11° ENE visible
29 Oct 9.4 20:17:57 10° SW 20:23:23 85° SE 20:24:51 50° NE visible
29 Oct 11.6 22:02:38 10° W 22:05:35 25° WNW 22:05:35 25° WNW visible
30 Oct 9.5 19:46:59 10° SSW 19:52:20 67° ESE 19:55:07 29° NE visible
30 Oct 11.0 21:31:11 10° W 21:35:51 35° NW 21:35:51 35° NW visible
31 Oct 9.7 18:16:06 10° SSW 18:21:20 52° ESE 18:25:16 18° NE visible
31 Oct 10.6 19:59:47 10° WSW 20:04:55 41° NW 20:06:00 37° N visible
31 Oct 12.4 21:45:49 10° WNW 21:46:43 13° NW 21:46:43 13° NW visible
01 Nov 10.1 17:45:21 10° S 17:50:22 40° ESE 17:55:20 10° NE visible
01 Nov 10.3 19:28:27 10° WSW 19:33:43 50° NW 19:36:02 31° NNE visible
01 Nov 11.9 21:14:15 10° WNW 21:16:45 19° NW 21:16:45 19° NW visible
